FENGYUN 1C DEB, 38155

Orbit data source: Space-Track

FENGYUN 1C DEB, 38155 is space debris in SSO originally from a launch on Mon, 10 May 1999 UTC launched from the Taiyaun Space Center, China (TSC). Fengyun 1C debris stems from the Chinese weather satellite Fengyun-1C, which was intentionally destroyed by a Chinese anti-satellite missile in 2007. This event dramatically increased the amount of space debris, with thousands of trackable fragments posing hazards to satellites and human spaceflight. The Fengyun 1C debris cloud has become a focal point in discussions about space sustainability and the need for international regulations to prevent the creation of new debris.

Loading next visibility...
Identifier
38155, 1999-025ERC
Orbit
SSO
Country
Flag of CNCN / PRC
Related business
Manufacturer
Unknown
Mission
Spacecraft
Bus & Motor
Unknown
Mass
Unknown
Launch date (UTC)
1999-05-10 (26 years ago)
Launch vehicle
Unknown
Launch site
Taiyaun Space Center, China (TSC)
Object type
Payload
Rocket body
Debris
Shape & HBR
Unknown shape, 0.1 m
Radar Cross Section
Small (<0.1 m²)

Expand to show TLE details & history
Last TLE update: 1 week ago

TLE from 1 week ago
0 FENGYUN 1C DEB
1 38155U 99025ERC 25300.99527171  .00008337  00000-0  34500-2 0  9993
2 38155  98.4419 207.0729 0097315 263.8421  95.1665 14.24322772631249
Epoch: 2025-10-27T23:53Z
TLE epoch observation values (Epoch: 2025-10-27T23:53:11.475Z)
Latitude
-0.00003°
Longitude
172.18597°
Altitude
820.675 km
Speed
7.439 km/s
True Right ascension
13h 48m 17s
True Declination
0° 00' 00"
Sunlit
Object was in daylight at epoch
Visualization orbit readout
Latitude
Unknown
Longitude
Unknown
Altitude
Unknown
Speed
Unknown
Apparent Right ascension
Unknown
Apparent Declination
Unknown
Sunlit
N/A
Visualization observer readout
Local Sidereal Time
21:47:29
Azimuth
Unknown
Elevation
Unknown
Doppler factor
Unknown
Orbital elements
Apogee altitude
877.841 km
Perigee altitude
737.979 km
Semi-major axis
7,186.047 km
Eccentricity
0.00973
Inclination
98.4419°
RAAN
207.0729°
Arg. of periapsis
263.8421°
True anomaly
96.27583°
Mean anomaly
95.1665°
Eccentric anomaly
95.7213°
Mean motion
3.56294 °/min
Orbital period
101.04 mins
BSTAR
0.00345
Loading maneuver chart data...
Computing Atmospheric mass density...

Documentation

Showing up to 5 results
|